[Iaude] MPEC J95: 2024 JG2 [a=2.45,e=0.53,i=14.4,H=22.8]

mpec at cfa.harvard.edu mpec at cfa.harvard.edu
Mon May 6 06:38:39 EDT 2024


M.P.E.C. 2024-J95                                   Issued 2024 May 6, 10:37 UT

     The Minor Planet Electronic Circulars contain information on unusual
         minor planets, routine data on comets and natural satellites,
         and occasional editorial announcements.  They are published
    on behalf of Division F of the International Astronomical Union by the
          Minor Planet Center, Smithsonian Astrophysical Observatory,
                          Cambridge, MA 02138, U.S.A.
			  
             Prepared using the Tamkin Foundation Computer Network

                              MPC at CFA.HARVARD.EDU
            URL https://www.minorplanetcenter.net/    ISSN 1523-6714

                                    2024 JG2                                    


Observations:
     K24J02G* C2024 05 03.50053016 38 07.736+06 46 03.05         21.47wXEJ095F51
     K24J02G  C2024 05 03.51317116 38 09.001+06 45 45.93         21.66wXEJ095F51
     K24J02G  C2024 05 03.52581116 38 10.273+06 45 28.73         21.68wXEJ095F51
     K24J02G  C2024 05 03.53843116 38 11.525+06 45 11.62         21.60wXEJ095F51
     K24J02G KC2024 05 04.28106316 39 35.97 +06 27 38.3          21.5 GVEJ095H21
     K24J02G KC2024 05 04.28533016 39 36.39 +06 27 31.9          21.5 GVEJ095H21
     K24J02G KC2024 05 04.28826816 39 36.69 +06 27 27.5          21.6 GVEJ095H21
     K24J02G 3C2024 05 04.58189116 40 08.888+06 20 27.98         21.43GVEJ095T14
     K24J02G 3C2024 05 04.58286716 40 08.988+06 20 26.53         21.44GVEJ095T14
     K24J02G 3C2024 05 04.58384516 40 09.088+06 20 25.08         21.40GVEJ095T14
     K24J02G KC2024 05 06.39341516 43 39.870+05 32 38.30         23.07GVEJ095I52
     K24J02G KC2024 05 06.39614416 43 40.190+05 32 33.80               VEJ095I52
     K24J02G KC2024 05 06.40156416 43 40.840+05 32 24.60               VEJ095I52

Observer details:
F51 Pan-STARRS 1, Haleakala.  Observers J. Herman, T. Lowe, P. Minguez, A.
    Schultz, I. Smith.  Measurers K. Chambers, T. de Boer, J. Fairlamb, H.
    Gao, M. Huber, C.-C. Lin, E. Magnier, Y. Ramanjooloo, R. Wainscoat, R.
    Weryk.  1.8-m Ritchey-Chretien + CCD.
H21 Astronomical Research Observatory, Westfield.  Observer R. Holmes.
    Measurers T. Linder, R. Holmes, L. Horn.  0.76-m f/3.0 astrograph + CCD.
I52 Steward Observatory, Mt. Lemmon Station.  Observer R. A. Kowalski.
    Measurers T. Beuden, V. F. Carvajal, D. Fay, J. B. Fazekas, D. C. Fuls, A.
    R. Gibbs, A. D. Grauer, H. Groeller, J. K. Hogan, R. A. Kowalski, S. M.
    Larson, G. J. Leonard, D. Rankin, R. L. Seaman, F. C. Shelly, K. W.
    Wierzchos.  1.0-m prime focus + CCD.
T14 Canada-France-Hawaii Telescope, Maunakea.  Observers R. Wainscoat, A.
    Acohido, T. Burdullis.  Measurers R. Weryk, R. Wainscoat.  3.6-m f/4.1
    reflector + CCD.

Orbital elements:
2024 JG2                                                 Earth MOID = 0.1329 AU
Epoch 2024 Mar. 31.0 TT = JDT 2460400.5                 MPC                     
M 340.03554              (2000.0)            P               Q                  
n   0.25682813     Peri.  195.45605     -0.02913074     +0.97096166             
a   2.4511750      Node    73.33128     -0.88881182     +0.08352996             
e   0.5349315      Incl.   14.35155     -0.45734555     -0.22417895             
P   3.84           H   22.89          G   0.15           U   9                  
Residuals in seconds of arc
240503 F51  0.1-  0.2-    240504 H21  0.1-  0.0     240506 I52  0.9-  0.3-
240503 F51  0.1-  0.1-    240504 H21  0.2-  0.2-    240506 I52  0.4-  0.2-
240503 F51  0.1+  0.0     240504 T14  0.0   0.0     240506 I52  0.7+  0.2-
240503 F51  0.0   0.1+    240504 T14  0.0   0.0
240504 H21  0.2+  0.2+    240504 T14  0.0   0.0

Ephemeris:
2024 JG2                 a,e,i = 2.45, 0.53, 14                  q = 1.1400
Date    TT    R. A. (2000) Decl.     Delta      r    Elong.  Phase     V
2024 04 06    15 53 09.2 +10 23 57   0.5077  1.4009   133.8    31.0    23.5
...
2024 04 21    16 16 40.0 +09 43 23   0.3781  1.3134   138.9    30.2    22.7
...
2024 04 29    16 30 01.3 +08 12 29   0.3176  1.2718   141.8    29.3    22.2
...
2024 05 05    16 40 57.6 +06 10 09   0.2761  1.2433   144.3    28.2    21.8
2024 05 06    16 42 53.7 +05 43 49   0.2695  1.2389   144.8    28.0    21.7
2024 05 07    16 44 52.1 +05 15 29   0.2631  1.2345   145.3    27.7    21.7
...
2024 05 13    16 57 44.8 +01 37 19   0.2267  1.2099   148.7    25.7    21.3
...
2024 05 21    17 18 59.1 -05 59 39   0.1855  1.1822   154.5    21.6    20.6
...
2024 06 05    18 22 31.1 -30 51 12   0.1425  1.1483   158.3    19.0    19.9

A. U. Tomatic                (C) Copyright 2024 MPC           M.P.E.C. 2024-J95





More information about the Iaude mailing list